Wetterdaten: Montag, 31.03.2014
Datum Zeit Temperatur Luftfeuchte Luftdruck Regen Wind Richtung Richtung Taupunkt Windchill Windben
31.03.2014 00:00 2,9 C 74 % 1016,1 hPa 0,0 l/m 0,0 km/h (0 Bft) SW 225 -1,3 C 16,1 C 0,0 km/h (0 Bft)
31.03.2014 00:05 2,8 C 73 % 1016,1 hPa 0,0 l/m 0,0 km/h (0 Bft) SW 225 -1,5 C 16,1 C 0,0 km/h (0 Bft)
31.03.2014 00:10 2,8 C 73 % 1016,2 hPa 0,0 l/m 0,0 km/h (0 Bft) SW 225 -1,5 C 16,1 C 0,0 km/h (0 Bft)
31.03.2014 00:15 2,4 C 73 % 1016,2 hPa 0,0 l/m 0,0 km/h (0 Bft) SW 225 -1,9 C 16,1 C 0,0 km/h (0 Bft)
31.03.2014 00:20 2,9 C 74 % 1016,2 hPa 0,0 l/m 0,0 km/h (0 Bft) SW 225 -1,3 C 16,1 C 0,0 km/h (0 Bft)
31.03.2014 00:25 3,4 C 73 % 1016,2 hPa 0,0 l/m 0,0 km/h (0 Bft) SW 225 -1,0 C 16,1 C 0,0 km/h (0 Bft)
31.03.2014 00:30 2,8 C 73 % 1016,1 hPa 0,0 l/m 0,0 km/h (0 Bft) SW 225 -1,5 C 16,1 C 0,0 km/h (0 Bft)
31.03.2014 00:36 2,4 C 73 % 1016,1 hPa 0,0 l/m 0,0 km/h (0 Bft) SW 225 -1,9 C 16,1 C 0,0 km/h (0 Bft)
31.03.2014 00:40 2,7 C 74 % 1016,1 hPa 0,0 l/m 0,0 km/h (0 Bft) SW 225 -1,5 C 16,1 C 0,0 km/h (0 Bft)
31.03.2014 00:45 2,5 C 74 % 1016,1 hPa 0,0 l/m 0,0 km/h (0 Bft) SW 225 -1,7 C 16,1 C 0,0 km/h (0 Bft)
31.03.2014 00:50 2,4 C 74 % 1016,0 hPa 0,0 l/m 0,0 km/h (0 Bft) SW 225 -1,7 C 16,1 C 0,0 km/h (0 Bft)
31.03.2014 00:55 2,1 C 74 % 1016,0 hPa 0,0 l/m 0,0 km/h (0 Bft) SW 225 -2,0 C 16,1 C 0,0 km/h (0 Bft)
31.03.2014 01:00 1,9 C 74 % 1016,0 hPa 0,0 l/m 0,0 km/h (0 Bft) SW 225 -2,2 C 16,1 C 0,0 km/h (0 Bft)
31.03.2014 01:05 1,9 C 74 % 1016,0 hPa 0,0 l/m 0,0 km/h (0 Bft) SW 225 -2,2 C 16,1 C 0,0 km/h (0 Bft)
31.03.2014 01:10 2,2 C 75 % 1015,7 hPa 0,0 l/m 0,0 km/h (0 Bft) SW 225 -1,8 C 16,1 C 0,0 km/h (0 Bft)
31.03.2014 01:15 2,1 C 75 % 1015,7 hPa 0,0 l/m 0,0 km/h (0 Bft) SW 225 -1,9 C 16,1 C 0,0 km/h (0 Bft)
31.03.2014 01:20 2,4 C 75 % 1015,7 hPa 0,0 l/m 0,0 km/h (0 Bft) SW 225 -1,6 C 16,1 C 0,0 km/h (0 Bft)
31.03.2014 01:25 2,1 C 74 % 1015,7 hPa 0,0 l/m 0,0 km/h (0 Bft) SW 225 -2,0 C 16,1 C 0,0 km/h (0 Bft)
31.03.2014 01:30 1,8 C 74 % 1015,9 hPa 0,0 l/m 0,0 km/h (0 Bft) SW 225 -2,3 C 16,1 C 0,0 km/h (0 Bft)
31.03.2014 01:35 1,5 C 75 % 1015,9 hPa 0,0 l/m 0,0 km/h (0 Bft) SW 225 -2,4 C 16,1 C 0,0 km/h (0 Bft)
31.03.2014 01:40 1,6 C 75 % 1015,9 hPa 0,0 l/m 0,0 km/h (0 Bft) SW 225 -2,3 C 16,1 C 0,0 km/h (0 Bft)
31.03.2014 01:45 1,6 C 76 % 1015,9 hPa 0,0 l/m 0,0 km/h (0 Bft) SW 225 -2,2 C 16,1 C 0,0 km/h (0 Bft)
31.03.2014 01:50 1,5 C 76 % 1015,9 hPa 0,0 l/m 0,0 km/h (0 Bft) SW 225 -2,3 C 16,1 C 0,0 km/h (0 Bft)
31.03.2014 01:55 1,6 C 76 % 1015,9 hPa 0,0 l/m 0,0 km/h (0 Bft) SW 225 -2,2 C 16,1 C 0,0 km/h (0 Bft)
31.03.2014 02:00 1,7 C 77 % 1015,9 hPa 0,0 l/m 0,0 km/h (0 Bft) SW 225 -1,9 C 16,1 C 0,0 km/h (0 Bft)
31.03.2014 02:05 1,6 C 76 % 1015,9 hPa 0,0 l/m 0,0 km/h (0 Bft) SW 225 -2,2 C 16,1 C 0,0 km/h (0 Bft)
31.03.2014 02:10 1,9 C 77 % 1016,1 hPa 0,0 l/m 0,0 km/h (0 Bft) SW 225 -1,7 C 16,1 C 0,0 km/h (0 Bft)
31.03.2014 02:15 1,8 C 76 % 1016,1 hPa 0,0 l/m 0,0 km/h (0 Bft) SW 225 -2,0 C 16,1 C 0,0 km/h (0 Bft)
31.03.2014 02:20 1,8 C 77 % 1016,1 hPa 0,0 l/m 0,0 km/h (0 Bft) SW 225 -1,8 C 16,1 C 0,0 km/h (0 Bft)
31.03.2014 02:25 1,6 C 76 % 1016,1 hPa 0,0 l/m 0,0 km/h (0 Bft) SW 225 -2,2 C 16,1 C 0,0 km/h (0 Bft)
31.03.2014 02:30 2,0 C 77 % 1015,9 hPa 0,0 l/m 0,0 km/h (0 Bft) SW 225 -1,6 C 16,1 C 0,0 km/h (0 Bft)
31.03.2014 02:35 3,7 C 76 % 1015,9 hPa 0,0 l/m 0,0 km/h (0 Bft) SW 225 -0,1 C 16,1 C 0,0 km/h (0 Bft)
31.03.2014 02:40 3,9 C 75 % 1015,9 hPa 0,0 l/m 0,0 km/h (0 Bft) SW 225 -0,1 C 16,1 C 0,0 km/h (0 Bft)
31.03.2014 02:45 3,6 C 73 % 1015,9 hPa 0,0 l/m 0,0 km/h (0 Bft) SW 225 -0,8 C 16,1 C 0,0 km/h (0 Bft)
31.03.2014 02:50 3,1 C 73 % 1015,3 hPa 0,0 l/m 0,0 km/h (0 Bft) SW 225 -1,3 C 16,1 C 0,0 km/h (0 Bft)
31.03.2014 02:55 2,3 C 74 % 1015,3 hPa 0,0 l/m 0,0 km/h (0 Bft) SW 225 -1,8 C 16,1 C 0,0 km/h (0 Bft)
31.03.2014 03:00 2,5 C 76 % 1015,3 hPa 0,0 l/m 0,0 km/h (0 Bft) SW 225 -1,3 C 16,1 C 0,0 km/h (0 Bft)
31.03.2014 03:05 2,0 C 75 % 1015,3 hPa 0,0 l/m 0,0 km/h (0 Bft) SW 225 -2,0 C 16,1 C 0,0 km/h (0 Bft)
31.03.2014 03:10 1,8 C 75 % 1015,2 hPa 0,0 l/m 0,0 km/h (0 Bft) SW 225 -2,1 C 16,1 C 0,0 km/h (0 Bft)
31.03.2014 03:15 1,9 C 78 % 1015,2 hPa 0,0 l/m 0,0 km/h (0 Bft) SW 225 -1,5 C 16,1 C 0,0 km/h (0 Bft)
31.03.2014 03:20 2,2 C 78 % 1015,2 hPa 0,0 l/m 0,0 km/h (0 Bft) SW 225 -1,2 C 16,1 C 0,0 km/h (0 Bft)
31.03.2014 03:25 1,8 C 77 % 1015,2 hPa 0,0 l/m 0,0 km/h (0 Bft) SW 225 -1,8 C 16,1 C 0,0 km/h (0 Bft)
31.03.2014 03:30 1,5 C 76 % 1015,3 hPa 0,0 l/m 0,0 km/h (0 Bft) SW 225 -2,3 C 16,1 C 0,0 km/h (0 Bft)
31.03.2014 03:35 1,4 C 77 % 1015,3 hPa 0,0 l/m 0,0 km/h (0 Bft) SW 225 -2,2 C 16,1 C 0,0 km/h (0 Bft)
31.03.2014 03:40 1,3 C 77 % 1015,3 hPa 0,0 l/m 0,0 km/h (0 Bft) SW 225 -2,3 C 16,1 C 0,0 km/h (0 Bft)
31.03.2014 03:45 1,4 C 78 % 1015,3 hPa 0,0 l/m 0,0 km/h (0 Bft) SW 225 -2,0 C 16,1 C 0,0 km/h (0 Bft)
31.03.2014 03:50 1,5 C 79 % 1015,6 hPa 0,0 l/m 0,0 km/h (0 Bft) SW 225 -1,7 C 16,1 C 0,0 km/h (0 Bft)
31.03.2014 03:55 1,7 C 78 % 1015,6 hPa 0,0 l/m 0,0 km/h (0 Bft) SW 225 -1,7 C 16,1 C 0,0 km/h (0 Bft)
31.03.2014 04:00 1,6 C 78 % 1015,6 hPa 0,0 l/m 0,0 km/h (0 Bft) SW 225 -1,8 C 16,1 C 0,0 km/h (0 Bft)
31.03.2014 04:05 1,5 C 78 % 1015,6 hPa 0,0 l/m 0,0 km/h (0 Bft) SW 225 -1,9 C 16,1 C 0,0 km/h (0 Bft)
31.03.2014 04:10 1,8 C 78 % 1015,6 hPa 0,0 l/m 0,0 km/h (0 Bft) SW 225 -1,6 C 16,1 C 0,0 km/h (0 Bft)
31.03.2014 04:13 1,6 C 78 % 1015,6 hPa 0,0 l/m 0,0 km/h (0 Bft) SW 225 -1,8 C 16,1 C 0,0 km/h (0 Bft)
31.03.2014 04:15 1,6 C 78 % 1015,6 hPa 0,0 l/m 0,0 km/h (0 Bft) SW 225 -1,8 C 16,1 C 0,0 km/h (0 Bft)
31.03.2014 04:20 1,7 C 79 % 1015,6 hPa 0,0 l/m 0,0 km/h (0 Bft) SW 225 -1,5 C 16,1 C 0,0 km/h (0 Bft)
31.03.2014 04:25 2,1 C 79 % 1015,6 hPa 0,0 l/m 0,0 km/h (0 Bft) SW 225 -1,2 C 16,1 C 0,0 km/h (0 Bft)
31.03.2014 04:30 2,4 C 79 % 1015,4 hPa 0,0 l/m 0,0 km/h (0 Bft) SW 225 -0,9 C 16,1 C 0,0 km/h (0 Bft)
31.03.2014 04:35 2,0 C 78 % 1015,4 hPa 0,0 l/m 0,0 km/h (0 Bft) SW 225 -1,4 C 16,1 C 0,0 km/h (0 Bft)
31.03.2014 04:40 1,9 C 78 % 1015,4 hPa 0,0 l/m 0,0 km/h (0 Bft) SW 225 -1,5 C 16,1 C 0,0 km/h (0 Bft)
31.03.2014 04:45 1,3 C 78 % 1015,4 hPa 0,0 l/m 0,0 km/h (0 Bft) SW 225 -2,1 C 16,1 C 0,0 km/h (0 Bft)
31.03.2014 04:50 1,2 C 78 % 1015,2 hPa 0,0 l/m 0,0 km/h (0 Bft) SW 225 -2,2 C 16,1 C 0,0 km/h (0 Bft)
31.03.2014 04:55 1,2 C 78 % 1015,2 hPa 0,0 l/m 0,0 km/h (0 Bft) SW 225 -2,2 C 16,1 C 0,0 km/h (0 Bft)
31.03.2014 05:01 1,6 C 79 % 1015,2 hPa 0,0 l/m 0,0 km/h (0 Bft) SW 225 -1,6 C 16,1 C 0,0 km/h (0 Bft)
31.03.2014 05:05 2,0 C 79 % 1015,2 hPa 0,0 l/m 0,0 km/h (0 Bft) SW 225 -1,2 C 16,1 C 0,0 km/h (0 Bft)
31.03.2014 05:10 1,8 C 79 % 1015,1 hPa 0,0 l/m 0,0 km/h (0 Bft) SW 225 -1,4 C 16,1 C 0,0 km/h (0 Bft)
31.03.2014 05:15 1,6 C 79 % 1015,1 hPa 0,0 l/m 0,0 km/h (0 Bft) SW 225 -1,6 C 16,1 C 0,0 km/h (0 Bft)
31.03.2014 05:20 1,4 C 79 % 1015,1 hPa 0,0 l/m 0,0 km/h (0 Bft) SW 225 -1,8 C 16,1 C 0,0 km/h (0 Bft)
31.03.2014 05:25 1,2 C 78 % 1015,1 hPa 0,0 l/m 0,0 km/h (0 Bft) SW 225 -2,2 C 16,1 C 0,0 km/h (0 Bft)
31.03.2014 05:30 1,0 C 78 % 1015,6 hPa 0,0 l/m 0,0 km/h (0 Bft) SW 225 -2,4 C 16,1 C 0,0 km/h (0 Bft)
31.03.2014 05:35 1,2 C 79 % 1015,6 hPa 0,0 l/m 0,0 km/h (0 Bft) SW 225 -2,0 C 16,1 C 0,0 km/h (0 Bft)
31.03.2014 05:40 0,9 C 79 % 1015,6 hPa 0,0 l/m 0,0 km/h (0 Bft) SW 225 -2,3 C 16,1 C 0,0 km/h (0 Bft)
31.03.2014 05:45 1,0 C 79 % 1015,6 hPa 0,0 l/m 0,0 km/h (0 Bft) SW 225 -2,2 C 16,1 C 0,0 km/h (0 Bft)
31.03.2014 05:50 1,0 C 79 % 1015,2 hPa 0,0 l/m 0,0 km/h (0 Bft) SW 225 -2,2 C 16,1 C 0,0 km/h (0 Bft)
31.03.2014 05:55 1,0 C 79 % 1015,2 hPa 0,0 l/m 0,0 km/h (0 Bft) SW 225 -2,2 C 16,1 C 0,0 km/h (0 Bft)
31.03.2014 06:00 1,3 C 80 % 1015,2 hPa 0,0 l/m 0,0 km/h (0 Bft) SW 225 -1,8 C 16,1 C 0,0 km/h (0 Bft)
31.03.2014 06:05 1,5 C 81 % 1015,2 hPa 0,0 l/m 0,0 km/h (0 Bft) SW 225 -1,4 C 16,1 C 0,0 km/h (0 Bft)
31.03.2014 06:10 1,7 C 82 % 1015,2 hPa 0,0 l/m 0,0 km/h (0 Bft) SW 225 -1,0 C 16,1 C 0,0 km/h (0 Bft)
31.03.2014 06:15 1,5 C 81 % 1015,2 hPa 0,0 l/m 0,0 km/h (0 Bft) SW 225 -1,4 C 16,1 C 0,0 km/h (0 Bft)
31.03.2014 06:20 1,7 C 81 % 1015,2 hPa 0,0 l/m 0,0 km/h (0 Bft) SW 225 -1,2 C 16,1 C 0,0 km/h (0 Bft)
31.03.2014 06:25 1,5 C 81 % 1015,2 hPa 0,0 l/m 0,0 km/h (0 Bft) SW 225 -1,4 C 16,1 C 0,0 km/h (0 Bft)
31.03.2014 06:30 1,4 C 81 % 1015,5 hPa 0,0 l/m 0,0 km/h (0 Bft) SW 225 -1,5 C 16,1 C 0,0 km/h (0 Bft)
31.03.2014 06:35 1,5 C 82 % 1015,5 hPa 0,0 l/m 0,0 km/h (0 Bft) SW 225 -1,2 C 16,1 C 0,0 km/h (0 Bft)
31.03.2014 06:40 1,5 C 81 % 1015,5 hPa 0,0 l/m 0,0 km/h (0 Bft) SW 225 -1,4 C 16,1 C 0,0 km/h (0 Bft)
31.03.2014 06:45 1,2 C 81 % 1015,5 hPa 0,0 l/m 0,0 km/h (0 Bft) SW 225 -1,7 C 16,1 C 0,0 km/h (0 Bft)
31.03.2014 06:50 1,1 C 80 % 1015,2 hPa 0,0 l/m 0,0 km/h (0 Bft) SW 225 -2,0 C 16,1 C 0,0 km/h (0 Bft)
31.03.2014 06:55 1,0 C 80 % 1015,2 hPa 0,0 l/m 0,0 km/h (0 Bft) SW 225 -2,1 C 16,1 C 0,0 km/h (0 Bft)
31.03.2014 07:00 1,2 C 80 % 1015,2 hPa 0,0 l/m 0,0 km/h (0 Bft) SW 225 -1,9 C 16,1 C 0,0 km/h (0 Bft)
31.03.2014 07:05 1,5 C 81 % 1015,2 hPa 0,0 l/m 0,0 km/h (0 Bft) SW 225 -1,4 C 16,1 C 0,0 km/h (0 Bft)
31.03.2014 07:10 1,8 C 81 % 1015,4 hPa 0,0 l/m 0,0 km/h (0 Bft) SW 225 -1,1 C 16,1 C 0,0 km/h (0 Bft)
31.03.2014 07:15 1,8 C 81 % 1015,4 hPa 0,0 l/m 0,0 km/h (0 Bft) SW 225 -1,1 C 16,1 C 0,0 km/h (0 Bft)
31.03.2014 07:20 1,8 C 81 % 1015,4 hPa 0,0 l/m 0,0 km/h (0 Bft) SW 225 -1,1 C 16,1 C 0,0 km/h (0 Bft)
31.03.2014 07:25 1,6 C 80 % 1015,4 hPa 0,0 l/m 0,0 km/h (0 Bft) SW 225 -1,5 C 16,1 C 0,0 km/h (0 Bft)
31.03.2014 07:30 1,6 C 79 % 1015,5 hPa 0,0 l/m 0,0 km/h (0 Bft) SW 225 -1,6 C 16,1 C 0,0 km/h (0 Bft)
31.03.2014 07:35 1,6 C 79 % 1015,5 hPa 0,0 l/m 0,0 km/h (0 Bft) SW 225 -1,6 C 16,1 C 0,0 km/h (0 Bft)
31.03.2014 07:40 1,7 C 79 % 1015,5 hPa 0,0 l/m 0,0 km/h (0 Bft) SW 225 -1,5 C 16,1 C 0,0 km/h (0 Bft)
31.03.2014 07:45 1,9 C 79 % 1015,5 hPa 0,0 l/m 0,0 km/h (0 Bft) SW 225 -1,3 C 16,1 C 0,0 km/h (0 Bft)
31.03.2014 07:50 1,9 C 79 % 1015,9 hPa 0,0 l/m 0,0 km/h (0 Bft) SW 225 -1,3 C 16,1 C 0,0 km/h (0 Bft)
31.03.2014 07:55 2,2 C 78 % 1015,9 hPa 0,0 l/m 0,0 km/h (0 Bft) SW 225 -1,2 C 16,1 C 0,0 km/h (0 Bft)
31.03.2014 08:00 2,4 C 79 % 1015,9 hPa 0,0 l/m 0,0 km/h (0 Bft) SW 225 -0,9 C 16,1 C 0,0 km/h (0 Bft)
31.03.2014 08:05 2,7 C 79 % 1015,9 hPa 0,0 l/m 0,0 km/h (0 Bft) SW 225 -0,6 C 16,1 C 0,0 km/h (0 Bft)
31.03.2014 08:10 3,1 C 78 % 1016,1 hPa 0,0 l/m 0,0 km/h (0 Bft) SW 225 -0,4 C 16,1 C 0,0 km/h (0 Bft)
31.03.2014 08:15 3,4 C 78 % 1016,1 hPa 0,0 l/m 0,0 km/h (0 Bft) SW 225 -0,1 C 16,1 C 0,0 km/h (0 Bft)
31.03.2014 08:20 4,2 C 77 % 1016,1 hPa 0,0 l/m 0,0 km/h (0 Bft) SW 225 0,5 C 16,1 C 0,0 km/h (0 Bft)
31.03.2014 08:25 6,4 C 75 % 1016,1 hPa 0,0 l/m 0,0 km/h (0 Bft) SW 225 2,3 C 16,1 C 0,0 km/h (0 Bft)
31.03.2014 08:30 7,1 C 73 % 1015,9 hPa 0,0 l/m 0,0 km/h (0 Bft) SW 225 2,6 C 16,1 C 0,0 km/h (0 Bft)
31.03.2014 08:35 8,3 C 70 % 1015,9 hPa 0,0 l/m 0,0 km/h (0 Bft) SW 225 3,2 C 16,1 C 0,0 km/h (0 Bft)
31.03.2014 08:40 8,5 C 67 % 1015,9 hPa 0,0 l/m 0,0 km/h (0 Bft) SW 225 2,7 C 16,1 C 0,0 km/h (0 Bft)
31.03.2014 08:45 9,0 C 64 % 1015,9 hPa 0,0 l/m 0,0 km/h (0 Bft) SW 225 2,6 C 16,1 C 0,0 km/h (0 Bft)
31.03.2014 08:50 8,7 C 63 % 1016,2 hPa 0,0 l/m 0,0 km/h (0 Bft) SW 225 2,1 C 16,1 C 0,0 km/h (0 Bft)
31.03.2014 08:55 8,0 C 62 % 1016,2 hPa 0,0 l/m 0,0 km/h (0 Bft) SW 225 1,2 C 16,1 C 0,0 km/h (0 Bft)
31.03.2014 09:00 8,8 C 63 % 1016,2 hPa 0,0 l/m 0,0 km/h (0 Bft) SW 225 2,2 C 16,1 C 0,0 km/h (0 Bft)
31.03.2014 09:05 10,8 C 59 % 1016,2 hPa 0,0 l/m 0,0 km/h (0 Bft) SW 225 3,1 C 16,1 C 0,0 km/h (0 Bft)
31.03.2014 09:08 11,6 C 56 % 1016,3 hPa 0,0 l/m 0,0 km/h (0 Bft) SW 225 3,1 C 16,1 C 0,0 km/h (0 Bft)
31.03.2014 09:10 11,6 C 56 % 1016,3 hPa 0,0 l/m 0,0 km/h (0 Bft) SW 225 3,1 C 16,1 C 0,0 km/h (0 Bft)
31.03.2014 09:15 12,4 C 56 % 1016,3 hPa 0,0 l/m 0,0 km/h (0 Bft) SW 225 3,9 C 16,1 C 0,0 km/h (0 Bft)
31.03.2014 09:20 13,0 C 52 % 1016,3 hPa 0,0 l/m 0,0 km/h (0 Bft) SW 225 3,4 C 16,1 C 0,0 km/h (0 Bft)
31.03.2014 09:25 13,5 C 50 % 1016,3 hPa 0,0 l/m 0,0 km/h (0 Bft) SW 225 3,3 C 16,1 C 0,0 km/h (0 Bft)
31.03.2014 09:30 13,8 C 49 % 1017,0 hPa 0,0 l/m 0,0 km/h (0 Bft) SW 225 3,3 C 16,1 C 0,0 km/h (0 Bft)
31.03.2014 09:35 14,7 C 49 % 1017,0 hPa 0,0 l/m 0,0 km/h (0 Bft) SW 225 4,1 C 16,1 C 0,0 km/h (0 Bft)
31.03.2014 09:40 15,0 C 48 % 1017,0 hPa 0,0 l/m 0,0 km/h (0 Bft) SW 225 4,1 C 16,1 C 0,0 km/h (0 Bft)
31.03.2014 09:45 16,0 C 48 % 1017,0 hPa 0,0 l/m 0,0 km/h (0 Bft) SW 225 5,0 C 16,1 C 0,0 km/h (0 Bft)
31.03.2014 09:50 16,6 C 49 % 1017,2 hPa 0,0 l/m 0,0 km/h (0 Bft) SW 225 5,8 C 16,1 C 0,0 km/h (0 Bft)
31.03.2014 09:55 17,6 C 47 % 1017,2 hPa 0,0 l/m 0,0 km/h (0 Bft) SW 225 6,2 C 16,1 C 0,0 km/h (0 Bft)
31.03.2014 10:00 17,7 C 44 % 1017,2 hPa 0,0 l/m 0,0 km/h (0 Bft) SW 225 5,3 C 16,1 C 0,0 km/h (0 Bft)
31.03.2014 10:05 18,4 C 38 % 1017,2 hPa 0,0 l/m 0,0 km/h (0 Bft) SW 225 3,8 C 16,1 C 0,0 km/h (0 Bft)
31.03.2014 10:10 18,5 C 37 % 1017,4 hPa 0,0 l/m 0,0 km/h (0 Bft) SW 225 3,5 C 16,1 C 0,0 km/h (0 Bft)
31.03.2014 10:15 18,9 C 36 % 1017,4 hPa 0,0 l/m 0,0 km/h (0 Bft) SW 225 3,5 C 16,1 C 0,0 km/h (0 Bft)
31.03.2014 10:20 18,4 C 37 % 1017,4 hPa 0,0 l/m 0,0 km/h (0 Bft) SW 225 3,5 C 16,1 C 0,0 km/h (0 Bft)
31.03.2014 10:25 18,7 C 36 % 1017,4 hPa 0,0 l/m 0,0 km/h (0 Bft) SW 225 3,3 C 16,1 C 0,0 km/h (0 Bft)
31.03.2014 10:30 19,2 C 34 % 1017,4 hPa 0,0 l/m 0,0 km/h (0 Bft) SW 225 3,0 C 16,1 C 0,0 km/h (0 Bft)
31.03.2014 10:35 20,1 C 34 % 1017,4 hPa 0,0 l/m 0,0 km/h (0 Bft) SW 225 3,7 C 16,1 C 0,0 km/h (0 Bft)
31.03.2014 10:40 20,2 C 33 % 1017,4 hPa 0,0 l/m 0,0 km/h (0 Bft) SW 225 3,4 C 16,1 C 0,0 km/h (0 Bft)
31.03.2014 10:45 18,8 C 32 % 1017,4 hPa 0,0 l/m 0,0 km/h (0 Bft) SW 225 1,8 C 16,1 C 0,0 km/h (0 Bft)
31.03.2014 10:50 18,1 C 32 % 1017,6 hPa 0,0 l/m 0,0 km/h (0 Bft) SW 225 1,2 C 16,1 C 0,0 km/h (0 Bft)
31.03.2014 10:55 18,1 C 33 % 1017,6 hPa 0,0 l/m 0,0 km/h (0 Bft) SW 225 1,6 C 16,1 C 0,0 km/h (0 Bft)
31.03.2014 11:00 17,7 C 32 % 1017,6 hPa 0,0 l/m 0,0 km/h (0 Bft) SW 225 0,8 C 16,1 C 0,0 km/h (0 Bft)
31.03.2014 11:05 17,9 C 34 % 1017,6 hPa 0,0 l/m 0,0 km/h (0 Bft) SW 225 1,8 C 16,1 C 0,0 km/h (0 Bft)
31.03.2014 11:10 17,8 C 34 % 1017,9 hPa 0,0 l/m 0,0 km/h (0 Bft) SW 225 1,7 C 16,1 C 0,0 km/h (0 Bft)
31.03.2014 11:15 18,6 C 34 % 1017,9 hPa 0,0 l/m 0,0 km/h (0 Bft) SW 225 2,4 C 16,1 C 0,0 km/h (0 Bft)
31.03.2014 11:20 18,0 C 33 % 1017,9 hPa 0,0 l/m 0,0 km/h (0 Bft) SW 225 1,5 C 16,1 C 0,0 km/h (0 Bft)
31.03.2014 11:25 18,4 C 32 % 1017,9 hPa 0,0 l/m 0,0 km/h (0 Bft) SW 225 1,4 C 16,1 C 0,0 km/h (0 Bft)
31.03.2014 11:30 18,6 C 32 % 1018,0 hPa 0,0 l/m 0,0 km/h (0 Bft) SW 225 1,6 C 16,1 C 0,0 km/h (0 Bft)
31.03.2014 11:35 18,8 C 31 % 1018,0 hPa 0,0 l/m 0,0 km/h (0 Bft) SW 225 1,3 C 16,1 C 0,0 km/h (0 Bft)
31.03.2014 11:40 19,3 C 31 % 1018,0 hPa 0,0 l/m 0,0 km/h (0 Bft) SW 225 1,8 C 16,1 C 0,0 km/h (0 Bft)
31.03.2014 11:45 19,6 C 31 % 1018,0 hPa 0,0 l/m 0,0 km/h (0 Bft) SW 225 2,0 C 16,1 C 0,0 km/h (0 Bft)
31.03.2014 11:50 19,8 C 30 % 1018,0 hPa 0,0 l/m 0,0 km/h (0 Bft) SW 225 1,7 C 16,1 C 0,0 km/h (0 Bft)
31.03.2014 11:55 19,4 C 32 % 1018,0 hPa 0,0 l/m 0,0 km/h (0 Bft) SW 225 2,3 C 16,1 C 0,0 km/h (0 Bft)
31.03.2014 12:00 19,3 C 32 % 1018,0 hPa 0,0 l/m 0,0 km/h (0 Bft) SW 225 2,2 C 16,1 C 0,0 km/h (0 Bft)
31.03.2014 12:05 18,5 C 32 % 1018,0 hPa 0,0 l/m 0,0 km/h (0 Bft) SW 225 1,5 C 16,1 C 0,0 km/h (0 Bft)
31.03.2014 12:10 18,4 C 32 % 1018,2 hPa 0,0 l/m 0,0 km/h (0 Bft) SW 225 1,4 C 16,1 C 0,0 km/h (0 Bft)
31.03.2014 12:15 19,1 C 32 % 1018,2 hPa 0,0 l/m 0,0 km/h (0 Bft) SW 225 2,0 C 16,1 C 0,0 km/h (0 Bft)
31.03.2014 12:20 17,9 C 32 % 1018,2 hPa 0,0 l/m 0,0 km/h (0 Bft) SW 225 1,0 C 16,1 C 0,0 km/h (0 Bft)
31.03.2014 12:25 17,5 C 32 % 1018,2 hPa 0,0 l/m 0,0 km/h (0 Bft) SW 225 0,6 C 16,1 C 0,0 km/h (0 Bft)
31.03.2014 12:30 17,4 C 33 % 1017,9 hPa 0,0 l/m 0,0 km/h (0 Bft) SW 225 1,0 C 16,1 C 0,0 km/h (0 Bft)
31.03.2014 12:35 17,4 C 34 % 1017,9 hPa 0,0 l/m 0,0 km/h (0 Bft) SW 225 1,4 C 16,1 C 0,0 km/h (0 Bft)
31.03.2014 12:40 17,5 C 35 % 1017,9 hPa 0,0 l/m 0,0 km/h (0 Bft) SW 225 1,9 C 16,1 C 0,0 km/h (0 Bft)
31.03.2014 12:45 17,8 C 35 % 1017,9 hPa 0,0 l/m 0,0 km/h (0 Bft) SW 225 2,1 C 16,1 C 0,0 km/h (0 Bft)
31.03.2014 12:50 18,0 C 34 % 1018,1 hPa 0,0 l/m 0,0 km/h (0 Bft) SW 225 1,9 C 16,1 C 0,0 km/h (0 Bft)
31.03.2014 12:55 17,7 C 34 % 1018,1 hPa 0,0 l/m 0,0 km/h (0 Bft) SW 225 1,6 C 16,1 C 0,0 km/h (0 Bft)
31.03.2014 13:00 17,5 C 34 % 1018,1 hPa 0,0 l/m 0,0 km/h (0 Bft) SW 225 1,5 C 16,1 C 0,0 km/h (0 Bft)
31.03.2014 13:05 17,7 C 34 % 1018,1 hPa 0,0 l/m 0,0 km/h (0 Bft) SW 225 1,6 C 16,1 C 0,0 km/h (0 Bft)
31.03.2014 13:10 17,9 C 34 % 1017,8 hPa 0,0 l/m 0,0 km/h (0 Bft) SW 225 1,8 C 16,1 C 0,0 km/h (0 Bft)
31.03.2014 13:15 18,1 C 33 % 1017,8 hPa 0,0 l/m 0,0 km/h (0 Bft) SW 225 1,6 C 16,1 C 0,0 km/h (0 Bft)
31.03.2014 13:20 18,1 C 33 % 1017,8 hPa 0,0 l/m 0,0 km/h (0 Bft) SW 225 1,6 C 16,1 C 0,0 km/h (0 Bft)
31.03.2014 13:25 18,2 C 33 % 1017,8 hPa 0,0 l/m 0,0 km/h (0 Bft) SW 225 1,7 C 16,1 C 0,0 km/h (0 Bft)
31.03.2014 13:30 18,4 C 33 % 1017,8 hPa 0,0 l/m 0,0 km/h (0 Bft) SW 225 1,8 C 16,1 C 0,0 km/h (0 Bft)
31.03.2014 13:35 18,2 C 32 % 1017,8 hPa 0,0 l/m 0,0 km/h (0 Bft) SW 225 1,2 C 16,1 C 0,0 km/h (0 Bft)
31.03.2014 13:40 18,2 C 32 % 1017,8 hPa 0,0 l/m 0,0 km/h (0 Bft) SW 225 1,2 C 16,1 C 0,0 km/h (0 Bft)
31.03.2014 13:45 18,3 C 33 % 1017,8 hPa 0,0 l/m 0,0 km/h (0 Bft) SW 225 1,8 C 16,1 C 0,0 km/h (0 Bft)
31.03.2014 13:50 18,2 C 33 % 1017,8 hPa 0,0 l/m 0,0 km/h (0 Bft) SW 225 1,7 C 16,1 C 0,0 km/h (0 Bft)
31.03.2014 13:55 18,3 C 33 % 1017,8 hPa 0,0 l/m 0,0 km/h (0 Bft) SW 225 1,8 C 16,1 C 0,0 km/h (0 Bft)
31.03.2014 14:00 18,6 C 33 % 1017,8 hPa 0,0 l/m 0,0 km/h (0 Bft) SW 225 2,0 C 16,1 C 0,0 km/h (0 Bft)
31.03.2014 14:05 18,0 C 32 % 1017,8 hPa 0,0 l/m 0,0 km/h (0 Bft) SW 225 1,1 C 16,1 C 0,0 km/h (0 Bft)
31.03.2014 14:08 18,2 C 32 % 1017,6 hPa 0,0 l/m 0,0 km/h (0 Bft) SW 225 1,2 C 16,1 C 0,0 km/h (0 Bft)
31.03.2014 14:10 18,2 C 32 % 1017,6 hPa 0,0 l/m 0,0 km/h (0 Bft) SW 225 1,2 C 16,1 C 0,0 km/h (0 Bft)
31.03.2014 14:15 17,9 C 32 % 1017,6 hPa 0,0 l/m 0,0 km/h (0 Bft) SW 225 1,0 C 16,1 C 0,0 km/h (0 Bft)
31.03.2014 14:20 17,9 C 32 % 1017,6 hPa 0,0 l/m 0,0 km/h (0 Bft) SW 225 1,0 C 16,1 C 0,0 km/h (0 Bft)
31.03.2014 14:25 18,4 C 32 % 1017,6 hPa 0,0 l/m 0,0 km/h (0 Bft) SW 225 1,4 C 16,1 C 0,0 km/h (0 Bft)
31.03.2014 14:30 19,0 C 32 % 1017,5 hPa 0,0 l/m 0,0 km/h (0 Bft) SW 225 1,9 C 16,1 C 0,0 km/h (0 Bft)
31.03.2014 14:35 18,7 C 32 % 1017,5 hPa 0,0 l/m 0,0 km/h (0 Bft) SW 225 1,7 C 16,1 C 0,0 km/h (0 Bft)
31.03.2014 14:40 18,8 C 30 % 1017,5 hPa 0,0 l/m 0,0 km/h (0 Bft) SW 225 0,9 C 16,1 C 0,0 km/h (0 Bft)
31.03.2014 14:45 18,7 C 30 % 1017,5 hPa 0,0 l/m 0,0 km/h (0 Bft) SW 225 0,8 C 16,1 C 0,0 km/h (0 Bft)
31.03.2014 14:50 18,8 C 31 % 1017,4 hPa 0,0 l/m 0,0 km/h (0 Bft) SW 225 1,3 C 16,1 C 0,0 km/h (0 Bft)
31.03.2014 14:55 18,4 C 31 % 1017,4 hPa 0,0 l/m 0,0 km/h (0 Bft) SW 225 1,0 C 16,1 C 0,0 km/h (0 Bft)
31.03.2014 15:00 18,1 C 31 % 1017,4 hPa 0,0 l/m 0,0 km/h (0 Bft) SW 225 0,7 C 16,1 C 0,0 km/h (0 Bft)
31.03.2014 15:05 18,4 C 31 % 1017,4 hPa 0,0 l/m 0,0 km/h (0 Bft) SW 225 1,0 C 16,1 C 0,0 km/h (0 Bft)
31.03.2014 15:10 18,3 C 31 % 1017,2 hPa 0,0 l/m 0,0 km/h (0 Bft) SW 225 0,9 C 16,1 C 0,0 km/h (0 Bft)
31.03.2014 15:15 18,8 C 31 % 1017,2 hPa 0,0 l/m 0,0 km/h (0 Bft) SW 225 1,3 C 16,1 C 0,0 km/h (0 Bft)
31.03.2014 15:20 18,5 C 31 % 1017,2 hPa 0,0 l/m 0,0 km/h (0 Bft) SW 225 1,1 C 16,1 C 0,0 km/h (0 Bft)
31.03.2014 15:25 18,8 C 31 % 1017,2 hPa 0,0 l/m 0,0 km/h (0 Bft) SW 225 1,3 C 16,1 C 0,0 km/h (0 Bft)
31.03.2014 15:30 18,6 C 31 % 1017,0 hPa 0,0 l/m 0,0 km/h (0 Bft) SW 225 1,1 C 16,1 C 0,0 km/h (0 Bft)
31.03.2014 15:35 18,2 C 30 % 1017,0 hPa 0,0 l/m 0,0 km/h (0 Bft) SW 225 0,3 C 16,1 C 0,0 km/h (0 Bft)
31.03.2014 15:40 18,4 C 30 % 1017,0 hPa 0,0 l/m 0,0 km/h (0 Bft) SW 225 0,5 C 16,1 C 0,0 km/h (0 Bft)
31.03.2014 15:45 18,3 C 30 % 1017,0 hPa 0,0 l/m 0,0 km/h (0 Bft) SW 225 0,4 C 16,1 C 0,0 km/h (0 Bft)
31.03.2014 15:50 18,9 C 30 % 1016,9 hPa 0,0 l/m 0,0 km/h (0 Bft) SW 225 1,0 C 16,1 C 0,0 km/h (0 Bft)
31.03.2014 15:55 18,9 C 29 % 1016,9 hPa 0,0 l/m 0,0 km/h (0 Bft) SW 225 0,5 C 16,1 C 0,0 km/h (0 Bft)
31.03.2014 16:00 18,5 C 29 % 1016,9 hPa 0,0 l/m 0,0 km/h (0 Bft) SW 225 0,1 C 16,1 C 0,0 km/h (0 Bft)
31.03.2014 16:05 19,6 C 30 % 1016,9 hPa 0,0 l/m 0,0 km/h (0 Bft) SW 225 1,6 C 16,1 C 0,0 km/h (0 Bft)
31.03.2014 16:10 19,8 C 29 % 1016,5 hPa 0,0 l/m 0,0 km/h (0 Bft) SW 225 1,3 C 16,1 C 0,0 km/h (0 Bft)
31.03.2014 16:15 19,7 C 29 % 1016,5 hPa 0,0 l/m 0,0 km/h (0 Bft) SW 225 1,2 C 16,1 C 0,0 km/h (0 Bft)
31.03.2014 16:20 20,2 C 29 % 1016,5 hPa 0,0 l/m 0,0 km/h (0 Bft) SW 225 1,6 C 16,1 C 0,0 km/h (0 Bft)
31.03.2014 16:25 19,9 C 28 % 1016,5 hPa 0,0 l/m 0,0 km/h (0 Bft) SW 225 0,9 C 16,1 C 0,0 km/h (0 Bft)
31.03.2014 16:30 19,4 C 27 % 1016,5 hPa 0,0 l/m 0,0 km/h (0 Bft) SW 225 -0,1 C 16,1 C 0,0 km/h (0 Bft)
31.03.2014 16:35 19,6 C 29 % 1016,5 hPa 0,0 l/m 0,0 km/h (0 Bft) SW 225 1,1 C 16,1 C 0,0 km/h (0 Bft)
31.03.2014 16:40 19,5 C 28 % 1016,5 hPa 0,0 l/m 0,0 km/h (0 Bft) SW 225 0,5 C 16,1 C 0,0 km/h (0 Bft)
31.03.2014 16:45 19,5 C 29 % 1016,5 hPa 0,0 l/m 0,0 km/h (0 Bft) SW 225 1,0 C 16,1 C 0,0 km/h (0 Bft)
31.03.2014 16:50 19,0 C 28 % 1016,2 hPa 0,0 l/m 0,0 km/h (0 Bft) SW 225 0,1 C 16,1 C 0,0 km/h (0 Bft)
31.03.2014 16:55 18,8 C 30 % 1016,2 hPa 0,0 l/m 0,0 km/h (0 Bft) SW 225 0,9 C 16,1 C 0,0 km/h (0 Bft)
31.03.2014 17:00 18,7 C 30 % 1016,2 hPa 0,0 l/m 0,0 km/h (0 Bft) SW 225 0,8 C 16,1 C 0,0 km/h (0 Bft)
31.03.2014 17:05 18,4 C 30 % 1016,2 hPa 0,0 l/m 0,0 km/h (0 Bft) SW 225 0,5 C 16,1 C 0,0 km/h (0 Bft)
31.03.2014 17:10 18,1 C 30 % 1015,7 hPa 0,0 l/m 0,0 km/h (0 Bft) SW 225 0,3 C 16,1 C 0,0 km/h (0 Bft)
31.03.2014 17:15 18,1 C 31 % 1015,7 hPa 0,0 l/m 0,0 km/h (0 Bft) SW 225 0,7 C 16,1 C 0,0 km/h (0 Bft)
31.03.2014 17:20 17,8 C 30 % 1015,7 hPa 0,0 l/m 0,0 km/h (0 Bft) SW 225 0,0 C 16,1 C 0,0 km/h (0 Bft)
31.03.2014 17:25 17,7 C 31 % 1015,7 hPa 0,0 l/m 0,0 km/h (0 Bft) SW 225 0,4 C 16,1 C 0,0 km/h (0 Bft)
31.03.2014 17:30 17,7 C 31 % 1015,4 hPa 0,0 l/m 0,0 km/h (0 Bft) SW 225 0,4 C 16,1 C 0,0 km/h (0 Bft)
31.03.2014 17:35 17,3 C 31 % 1015,4 hPa 0,0 l/m 0,0 km/h (0 Bft) SW 225 0,0 C 16,1 C 0,0 km/h (0 Bft)
31.03.2014 17:40 17,2 C 32 % 1015,4 hPa 0,0 l/m 0,0 km/h (0 Bft) SW 225 0,4 C 16,1 C 0,0 km/h (0 Bft)
31.03.2014 17:45 17,1 C 32 % 1015,4 hPa 0,0 l/m 0,0 km/h (0 Bft) SW 225 0,3 C 16,1 C 0,0 km/h (0 Bft)
31.03.2014 17:50 16,9 C 33 % 1015,4 hPa 0,0 l/m 0,0 km/h (0 Bft) SW 225 0,5 C 16,1 C 0,0 km/h (0 Bft)
31.03.2014 17:55 16,6 C 33 % 1015,4 hPa 0,0 l/m 0,0 km/h (0 Bft) SW 225 0,3 C 16,1 C 0,0 km/h (0 Bft)
31.03.2014 18:00 16,3 C 33 % 1015,4 hPa 0,0 l/m 0,0 km/h (0 Bft) SW 225 0,0 C 16,1 C 0,0 km/h (0 Bft)
31.03.2014 18:05 16,1 C 33 % 1015,4 hPa 0,0 l/m 0,0 km/h (0 Bft) SW 225 -0,2 C 16,1 C 0,0 km/h (0 Bft)
31.03.2014 18:10 16,0 C 34 % 1015,3 hPa 0,0 l/m 0,0 km/h (0 Bft) SW 225 0,2 C 16,1 C 0,0 km/h (0 Bft)
31.03.2014 18:15 15,6 C 36 % 1015,3 hPa 0,0 l/m 0,0 km/h (0 Bft) SW 225 0,6 C 16,1 C 0,0 km/h (0 Bft)
31.03.2014 18:20 15,7 C 36 % 1015,3 hPa 0,0 l/m 0,0 km/h (0 Bft) SW 225 0,7 C 16,1 C 0,0 km/h (0 Bft)
31.03.2014 18:25 15,4 C 37 % 1015,3 hPa 0,0 l/m 0,0 km/h (0 Bft) SW 225 0,8 C 16,1 C 0,0 km/h (0 Bft)
31.03.2014 18:30 15,4 C 38 % 1015,2 hPa 0,0 l/m 0,0 km/h (0 Bft) SW 225 1,2 C 16,1 C 0,0 km/h (0 Bft)
31.03.2014 18:35 15,0 C 41 % 1015,2 hPa 0,0 l/m 0,0 km/h (0 Bft) SW 225 1,9 C 16,1 C 0,0 km/h (0 Bft)
31.03.2014 18:40 14,7 C 42 % 1015,2 hPa 0,0 l/m 0,0 km/h (0 Bft) SW 225 1,9 C 16,1 C 0,0 km/h (0 Bft)
31.03.2014 18:45 14,3 C 43 % 1015,2 hPa 0,0 l/m 0,0 km/h (0 Bft) SW 225 1,9 C 16,1 C 0,0 km/h (0 Bft)
31.03.2014 18:50 14,1 C 44 % 1015,9 hPa 0,0 l/m 0,0 km/h (0 Bft) SW 225 2,0 C 16,1 C 0,0 km/h (0 Bft)
31.03.2014 18:55 13,8 C 45 % 1015,9 hPa 0,0 l/m 0,0 km/h (0 Bft) SW 225 2,1 C 16,1 C 0,0 km/h (0 Bft)
31.03.2014 19:00 13,6 C 46 % 1015,9 hPa 0,0 l/m 0,0 km/h (0 Bft) SW 225 2,2 C 16,1 C 0,0 km/h (0 Bft)
31.03.2014 19:05 13,3 C 47 % 1015,9 hPa 0,0 l/m 0,0 km/h (0 Bft) SW 225 2,2 C 16,1 C 0,0 km/h (0 Bft)
31.03.2014 19:08 13,1 C 47 % 1015,3 hPa 0,0 l/m 0,0 km/h (0 Bft) SW 225 2,0 C 16,1 C 0,0 km/h (0 Bft)
31.03.2014 19:10 13,1 C 47 % 1015,3 hPa 0,0 l/m 0,0 km/h (0 Bft) SW 225 2,0 C 16,1 C 0,0 km/h (0 Bft)
31.03.2014 19:15 12,9 C 48 % 1015,3 hPa 0,0 l/m 0,0 km/h (0 Bft) SW 225 2,2 C 16,1 C 0,0 km/h (0 Bft)
31.03.2014 19:20 12,7 C 49 % 1015,3 hPa 0,0 l/m 0,0 km/h (0 Bft) SW 225 2,3 C 16,1 C 0,0 km/h (0 Bft)
31.03.2014 19:25 12,5 C 49 % 1015,3 hPa 0,0 l/m 0,0 km/h (0 Bft) SW 225 2,1 C 16,1 C 0,0 km/h (0 Bft)
31.03.2014 19:30 12,3 C 51 % 1015,2 hPa 0,0 l/m 0,0 km/h (0 Bft) SW 225 2,5 C 16,1 C 0,0 km/h (0 Bft)
31.03.2014 19:35 11,6 C 54 % 1015,2 hPa 0,0 l/m 0,0 km/h (0 Bft) SW 225 2,6 C 16,1 C 0,0 km/h (0 Bft)
31.03.2014 19:40 10,6 C 55 % 1015,2 hPa 0,0 l/m 0,0 km/h (0 Bft) SW 225 1,9 C 16,1 C 0,0 km/h (0 Bft)
31.03.2014 19:45 10,5 C 57 % 1015,2 hPa 0,0 l/m 0,0 km/h (0 Bft) SW 225 2,3 C 16,1 C 0,0 km/h (0 Bft)
31.03.2014 19:50 11,0 C 56 % 1015,0 hPa 0,0 l/m 0,0 km/h (0 Bft) SW 225 2,6 C 16,1 C 0,0 km/h (0 Bft)
31.03.2014 19:55 11,0 C 56 % 1015,0 hPa 0,0 l/m 0,0 km/h (0 Bft) SW 225 2,6 C 16,1 C 0,0 km/h (0 Bft)
31.03.2014 20:00 10,9 C 56 % 1015,0 hPa 0,0 l/m 0,0 km/h (0 Bft) SW 225 2,5 C 16,1 C 0,0 km/h (0 Bft)
31.03.2014 20:05 10,7 C 56 % 1015,0 hPa 0,0 l/m 0,0 km/h (0 Bft) SW 225 2,3 C 16,1 C 0,0 km/h (0 Bft)
31.03.2014 20:10 9,8 C 58 % 1014,3 hPa 0,0 l/m 0,0 km/h (0 Bft) SW 225 1,9 C 16,1 C 0,0 km/h (0 Bft)
31.03.2014 20:15 9,5 C 59 % 1014,3 hPa 0,0 l/m 0,0 km/h (0 Bft) SW 225 1,9 C 16,1 C 0,0 km/h (0 Bft)
31.03.2014 20:20 9,6 C 59 % 1014,3 hPa 0,0 l/m 0,0 km/h (0 Bft) SW 225 2,0 C 16,1 C 0,0 km/h (0 Bft)
31.03.2014 20:25 9,2 C 59 % 1014,3 hPa 0,0 l/m 0,0 km/h (0 Bft) SW 225 1,6 C 16,1 C 0,0 km/h (0 Bft)
31.03.2014 20:30 8,3 C 60 % 1014,2 hPa 0,0 l/m 0,0 km/h (0 Bft) SW 225 1,0 C 16,1 C 0,0 km/h (0 Bft)
31.03.2014 20:35 8,7 C 62 % 1014,2 hPa 0,0 l/m 0,0 km/h (0 Bft) SW 225 1,8 C 16,1 C 0,0 km/h (0 Bft)
31.03.2014 20:40 9,2 C 63 % 1014,2 hPa 0,0 l/m 0,0 km/h (0 Bft) SW 225 2,5 C 16,1 C 0,0 km/h (0 Bft)
31.03.2014 20:45 8,9 C 63 % 1014,2 hPa 0,0 l/m 0,0 km/h (0 Bft) SW 225 2,2 C 16,1 C 0,0 km/h (0 Bft)
31.03.2014 20:50 8,3 C 64 % 1014,8 hPa 0,0 l/m 0,0 km/h (0 Bft) SW 225 1,9 C 16,1 C 0,0 km/h (0 Bft)
31.03.2014 20:55 8,2 C 65 % 1014,8 hPa 0,0 l/m 0,0 km/h (0 Bft) SW 225 2,0 C 16,1 C 0,0 km/h (0 Bft)
31.03.2014 21:00 8,3 C 65 % 1014,8 hPa 0,0 l/m 0,0 km/h (0 Bft) SW 225 2,1 C 16,1 C 0,0 km/h (0 Bft)
31.03.2014 21:05 7,3 C 64 % 1014,8 hPa 0,0 l/m 0,0 km/h (0 Bft) SW 225 1,0 C 16,1 C 0,0 km/h (0 Bft)
31.03.2014 21:10 7,3 C 66 % 1015,1 hPa 0,0 l/m 0,0 km/h (0 Bft) SW 225 1,4 C 16,1 C 0,0 km/h (0 Bft)
31.03.2014 21:15 7,5 C 65 % 1015,1 hPa 0,0 l/m 0,0 km/h (0 Bft) SW 225 1,4 C 16,1 C 0,0 km/h (0 Bft)
31.03.2014 21:20 6,8 C 65 % 1015,1 hPa 0,0 l/m 0,0 km/h (0 Bft) SW 225 0,7 C 16,1 C 0,0 km/h (0 Bft)
31.03.2014 21:25 6,3 C 67 % 1015,1 hPa 0,0 l/m 0,0 km/h (0 Bft) SW 225 0,6 C 16,1 C 0,0 km/h (0 Bft)
31.03.2014 21:30 6,1 C 67 % 1015,1 hPa 0,0 l/m 0,0 km/h (0 Bft) SW 225 0,4 C 16,1 C 0,0 km/h (0 Bft)
31.03.2014 21:35 5,9 C 68 % 1015,1 hPa 0,0 l/m 0,0 km/h (0 Bft) SW 225 0,5 C 16,1 C 0,0 km/h (0 Bft)
31.03.2014 21:40 5,8 C 68 % 1015,1 hPa 0,0 l/m 0,0 km/h (0 Bft) SW 225 0,4 C 16,1 C 0,0 km/h (0 Bft)
31.03.2014 21:45 5,9 C 71 % 1015,1 hPa 0,0 l/m 0,0 km/h (0 Bft) SW 225 1,1 C 16,1 C 0,0 km/h (0 Bft)
31.03.2014 21:50 5,6 C 70 % 1015,2 hPa 0,0 l/m 0,0 km/h (0 Bft) SW 225 0,6 C 16,1 C 0,0 km/h (0 Bft)
31.03.2014 21:55 5,4 C 69 % 1015,2 hPa 0,0 l/m 0,0 km/h (0 Bft) SW 225 0,2 C 16,1 C 0,0 km/h (0 Bft)
31.03.2014 22:00 5,5 C 70 % 1015,2 hPa 0,0 l/m 0,0 km/h (0 Bft) SW 225 0,5 C 16,1 C 0,0 km/h (0 Bft)
31.03.2014 22:05 5,3 C 71 % 1015,2 hPa 0,0 l/m 0,0 km/h (0 Bft) SW 225 0,5 C 16,1 C 0,0 km/h (0 Bft)
31.03.2014 22:10 5,2 C 71 % 1015,2 hPa 0,0 l/m 0,0 km/h (0 Bft) SW 225 0,4 C 16,1 C 0,0 km/h (0 Bft)
31.03.2014 22:15 5,0 C 71 % 1015,2 hPa 0,0 l/m 0,0 km/h (0 Bft) SW 225 0,2 C 16,1 C 0,0 km/h (0 Bft)
31.03.2014 22:20 5,0 C 71 % 1015,2 hPa 0,0 l/m 0,0 km/h (0 Bft) SW 225 0,2 C 16,1 C 0,0 km/h (0 Bft)
31.03.2014 22:25 5,2 C 72 % 1015,2 hPa 0,0 l/m 0,0 km/h (0 Bft) SW 225 0,6 C 16,1 C 0,0 km/h (0 Bft)
31.03.2014 22:30 5,1 C 72 % 1015,2 hPa 0,0 l/m 0,0 km/h (0 Bft) SW 225 0,5 C 16,1 C 0,0 km/h (0 Bft)
31.03.2014 22:35 5,0 C 73 % 1015,2 hPa 0,0 l/m 0,0 km/h (0 Bft) SW 225 0,6 C 16,1 C 0,0 km/h (0 Bft)
31.03.2014 22:40 4,8 C 73 % 1015,2 hPa 0,0 l/m 0,0 km/h (0 Bft) SW 225 0,4 C 16,1 C 0,0 km/h (0 Bft)
31.03.2014 22:45 4,7 C 73 % 1015,2 hPa 0,0 l/m 0,0 km/h (0 Bft) SW 225 0,3 C 16,1 C 0,0 km/h (0 Bft)
31.03.2014 22:50 4,4 C 73 % 1015,3 hPa 0,0 l/m 0,0 km/h (0 Bft) SW 225 -0,0 C 16,1 C 0,0 km/h (0 Bft)
31.03.2014 22:55 4,2 C 73 % 1015,3 hPa 0,0 l/m 0,0 km/h (0 Bft) SW 225 -0,2 C 16,1 C 0,0 km/h (0 Bft)
31.03.2014 23:00 3,9 C 73 % 1015,3 hPa 0,0 l/m 0,0 km/h (0 Bft) SW 225 -0,5 C 16,1 C 0,0 km/h (0 Bft)
31.03.2014 23:05 4,0 C 74 % 1015,3 hPa 0,0 l/m 0,0 km/h (0 Bft) SW 225 -0,2 C 16,1 C 0,0 km/h (0 Bft)
31.03.2014 23:10 3,9 C 75 % 1015,2 hPa 0,0 l/m 0,0 km/h (0 Bft) SW 225 -0,1 C 16,1 C 0,0 km/h (0 Bft)
31.03.2014 23:15 3,9 C 76 % 1015,2 hPa 0,0 l/m 0,0 km/h (0 Bft) SW 225 0,1 C 16,1 C 0,0 km/h (0 Bft)
31.03.2014 23:20 3,6 C 76 % 1015,2 hPa 0,0 l/m 0,0 km/h (0 Bft) SW 225 -0,2 C 16,1 C 0,0 km/h (0 Bft)
31.03.2014 23:25 3,4 C 76 % 1015,2 hPa 0,0 l/m 0,0 km/h (0 Bft) SW 225 -0,4 C 16,1 C 0,0 km/h (0 Bft)
31.03.2014 23:30 3,5 C 77 % 1015,2 hPa 0,0 l/m 0,0 km/h (0 Bft) SW 225 -0,1 C 16,1 C 0,0 km/h (0 Bft)
31.03.2014 23:35 3,4 C 77 % 1015,2 hPa 0,0 l/m 0,0 km/h (0 Bft) SW 225 -0,2 C 16,1 C 0,0 km/h (0 Bft)
31.03.2014 23:40 3,4 C 77 % 1015,2 hPa 0,0 l/m 0,0 km/h (0 Bft) SW 225 -0,2 C 16,1 C 0,0 km/h (0 Bft)
31.03.2014 23:45 3,3 C 78 % 1015,2 hPa 0,0 l/m 0,0 km/h (0 Bft) SW 225 -0,2 C 16,1 C 0,0 km/h (0 Bft)
31.03.2014 23:50 3,7 C 79 % 1015,1 hPa 0,0 l/m 0,0 km/h (0 Bft) SW 225 0,4 C 16,1 C 0,0 km/h (0 Bft)
31.03.2014 23:55 3,5 C 78 % 1015,1 hPa 0,0 l/m 0,0 km/h (0 Bft) SW 225 0,0 C 16,1 C 0,0 km/h (0 Bft)
_ Min-Zeit 05:40 16:30 20:45 - 23:55 - - 01:35 23:55 23:55
Minimum _ 0,9 C 27 % 1014,2 hPa - 0,0 km/h (0 Bft) - - -2,4 C 16,1 C 0,0 km/h (0 Bft)
_ Max-Zeit 16:20 06:35 12:25 23:55 23:55 - - 09:55 23:55 23:55
Maximum _ 20,2 C 82 % 1018,2 hPa 0,0 l/m 0,0 km/h
SW (0 Bft)
- - 6,2 C 16,1 C 0,0 km/h
SW (0 Bft)
Durchschnitt _ 9,7 C 57 % 1016,1 hPa #0,0 l/m 0,0 km/h (0 Bft) - - - 0,4 C 16,1 C 0,0 km/h (0 Bft)